EW9532 Weather Reports


time (UTC)temp
C
wind
direction
speed
KPH
gust
KPH
rain 1hr
cm
rain 24hr
cm
rain mn
cm
humidity
%
barometer
mb
20260902185200 38 295 4.8 20.9 0.00 0.00 0.00 44 1014.1
20260902184703 38 344 8.0 20.9 0.00 0.00 0.00 45 1014.2
20260902184603 38 210 4.8 14.5 0.00 0.00 0.00 44 1014.4
20260902184203 38 198 4.8 11.3 0.00 0.00 0.00 46 1014.2
20260902183733 38 167 4.8 17.7 0.00 0.00 0.00 46 1014.4
20260902183202 38 255 8.0 17.7 0.00 0.00 0.00 47 1014.5
20260902183103 37 185 3.2 12.9 0.00 0.00 0.00 47 1014.6
20260902182702 38 20 4.8 11.3 0.00 0.00 0.00 47 1014.5
20260902182208 38 200 4.8 11.3 0.00 0.00 0.00 48 1014.5
20260902181703 37 320 4.8 22.5 0.00 0.00 0.00 48 1014.5
20260902181557 37 17 3.2 20.9 0.00 0.00 0.00 46 1014.9
20260902181203 37 119 9.7 22.5 0.00 0.00 0.00 47 1014.8
20260902180702 37 316 4.8 14.5 0.00 0.00 0.00 49 1014.8
20260902180206 37 302 6.4 14.5 0.00 0.00 0.00 50 1015.0
20260902180126 37 240 3.2 17.7 0.00 0.00 0.00 49 1015.3
20260902175701 37 34 3.2 19.3 0.00 0.00 0.00 49 1015.1
20260902175201 37 40 8.0 19.3 0.00 0.00 0.00 50 1015.2
20260902174702 36 27 3.2 11.3 0.00 0.00 0.00 54 1015.3
20260902174648 36 174 4.8 11.3 0.00 0.00 0.00 51 1015.5
20260902174201 36 205 4.8 16.1 0.00 0.00 0.00 53 1015.5
20260902173925 36 2 6.4 16.1 0.00 0.00 0.00 51 1015.5
20260902173200 36 143 6.4 12.9 0.00 0.00 0.00 52 1015.5
20260902173057 36 291 3.2 12.9 0.00 0.00 0.00 52 1015.8
20260902172701 36 122 6.4 12.9 0.00 0.00 0.00 53 1015.6
20260902172200 36 105 6.4 20.9 0.00 0.00 0.00 54 1015.7
20260902171923 36 50 8.0 20.9 0.00 0.00 0.00 53 1015.8
20260902171609 36 56 3.2 16.1 0.00 0.00 0.00 52 1015.9
20260902171201 36 319 6.4 14.5 0.00 0.00 0.00 54 1015.8
20260902170701 36 297 6.4 12.9 0.00 0.00 0.00 54 1015.8
20260902170424 36 146 3.2 12.9 0.00 0.00 0.00 54 1016.0
20260902170054 35 128 4.8 17.7 0.00 0.00 0.00 55 1016.1
20260902165700 35 250 3.2 17.7 0.00 0.00 0.00 54 1015.9
20260902165201 35 229 9.7 17.7 0.00 0.00 0.00 56 1015.9
20260902164700 35 205 4.8 9.7 0.00 0.00 0.00 57 1016.1
20260902164559 35 148 3.2 9.7 0.00 0.00 0.00 56 1016.4
20260902164201 35 20 4.8 9.7 0.00 0.00 0.00 58 1016.2
20260902163701 35 307 3.2 11.3 0.00 0.00 0.00 58 1016.2
20260902163201 35 65 4.8 12.9 0.00 0.00 0.00 60 1016.4
20260902163104 34 311 6.4 12.9 0.00 0.00 0.00 58 1016.5
20260902162700 35 278 4.8 12.9 0.00 0.00 0.00 60 1016.3
20260902162201 34 236 3.2 16.1 0.00 0.00 0.00 61 1016.3
20260902161702 34 287 6.4 16.1 0.00 0.00 0.00 61 1016.4
20260902161605 33 204 3.2 14.5 0.00 0.00 0.00 61 1016.6
20260902161201 34 352 4.8 14.5 0.00 0.00 0.00 62 1016.4
20260902160925 33 186 6.4 14.5 0.00 0.00 0.00 62 1016.2
20260902160223 33 277 4.8 12.9 0.00 0.00 0.00 63 1016.5
20260902160201 33 250 3.2 14.5 0.00 0.00 0.00 63 1016.3
20260902155931 33 281 4.8 12.9 0.00 0.00 0.00 63 1016.4
20260902155202 33 87 4.8 12.9 0.00 0.00 0.00 65 1016.4
20260902154700 33 143 6.4 12.9 0.00 0.00 0.00 65 1016.5
20260902154629 32 340 3.2 14.5 0.00 0.00 0.00 65 1016.7
20260902154201 32 97 4.8 12.9 0.00 0.00 0.00 67 1016.5
20260902153653 32 236 6.4 12.9 0.00 0.00 0.00 67 1016.5
20260902153152 32 166 8.0 12.9 0.00 0.00 0.00 67 1016.4
20260902153141 32 119 6.4 14.5 0.00 0.00 0.00 67 1016.6
20260902153105 32 119 6.4 14.5 0.00 0.00 0.00 67 1016.6
20260902152651 32 122 4.8 12.9 0.00 0.00 0.00 69 1016.3
20260902152135 32 302 4.8 12.9 0.00 0.00 0.00 70 1016.3
20260902151629 32 262 4.8 12.9 0.00 0.00 0.00 71 1016.2
20260902151611 31 264 4.8 16.1 0.00 0.00 0.00 71 1016.5
20260902151129 31 234 6.4 12.9 0.00 0.00 0.00 72 1016.1
20260902150629 31 67 4.8 14.5 0.00 0.00 0.00 73 1016.1
20260902150129 31 288 6.4 14.5 0.00 0.00 0.00 74 1016.2
20260902145629 31 290 8.0 14.5 0.00 0.00 0.00 74 1016.3
20260902145347 31 135 8.0 14.5 0.00 0.00 0.00 75 1016.3
20260902144628 30 260 6.4 11.3 0.00 0.00 0.00 76 1016.2
20260902144555 30 161 3.2 14.5 0.00 0.00 0.00 75 1016.5
20260902144129 30 34 6.4 14.5 0.00 0.00 0.00 78 1016.2
20260902143857 30 305 8.0 14.5 0.00 0.00 0.00 77 1016.3
20260902143129 30 300 4.8 11.3 0.00 0.00 0.00 79 1016.2
20260902143055 30 338 3.2 12.9 0.00 0.00 0.00 78 1016.5
20260902142628 30 328 6.4 11.3 0.00 0.00 0.00 79 1016.3
20260902142127 30 162 4.8 9.7 0.00 0.00 0.00 80 1016.2
20260902141932 29 49 4.8 14.5 0.00 0.00 0.00 81 1016.5
20260902141601 29 161 4.8 14.5 0.00 0.00 0.00 82 1016.2
20260902141321 29 247 4.8 11.3 0.00 0.00 0.00 82 1016.2
20260902140601 28 200 4.8 12.9 0.00 0.00 0.00 83 1016.3
20260902140107 28 1 6.4 12.9 0.00 0.00 0.00 83 1016.2
20260902135822 28 74 3.2 9.7 0.00 0.00 0.00 84 1016.4
20260902135031 28 316 4.8 12.9 0.00 0.00 0.00 84 1016.2
20260902134611 28 236 4.8 12.9 0.00 0.00 0.00 84 1016.4
20260902134532 28 288 4.8 12.9 0.00 0.00 0.00 84 1016.2
20260902134032 28 269 3.2 8.0 0.00 0.00 0.00 84 1016.3
20260902133750 28 210 3.2 9.7 0.00 0.00 0.00 84 1016.2
20260902133104 28 207 1.6 9.7 0.00 0.00 0.00 84 1016.5
20260902133031 28 186 3.2 9.7 0.00 0.00 0.00 85 1016.1
20260902132531 28 180 1.6 9.7 0.00 0.00 0.00 84 1016.3
20260902132027 28 178 3.2 6.4 0.00 0.00 0.00 85 1016.2
20260902131635 28 311 1.6 8.0 0.00 0.00 0.00 84 1016.3
20260902131524 28 200 3.2 8.0 0.00 0.00 0.00 85 1016.0
20260902131021 28 320 3.2 8.0 0.00 0.00 0.00 84 1015.9
20260902130743 28 136 0.0 6.4 0.00 0.00 0.00 85 1015.9
20260902130453 28 359 1.6 6.4 0.00 0.00 0.00 86 1015.9
20260902130059 27 160 1.6 6.4 0.00 0.00 0.00 85 1016.0
20260902125510 28 269 3.2 9.7 0.00 0.00 0.00 86 1015.8
20260902125005 27 225 3.2 9.7 0.00 0.00 0.00 87 1015.8
20260902124620 27 208 0.0 8.0 0.00 0.00 0.00 87 1015.9
20260902124502 27 18 1.6 8.0 0.00 0.00 0.00 87 1015.7
20260902124003 27 219 3.2 8.0 0.00 0.00 0.00 88 1015.8
20260902123502 27 27 0.0 3.2 0.00 0.00 0.00 88 1015.7
20260902123137 27 98 0.0 8.0 0.00 0.00 0.00 87 1015.8
20260902123001 27 123 1.6 8.0 0.00 0.00 0.00 88 1015.6
20260902122502 27 338 3.2 8.0 0.00 0.00 0.00 87 1015.6
20260902122002 27 213 1.6 6.4 0.00 0.00 0.00 87 1015.7
20260902121642 27 0 1.6 6.4 0.00 0.00 0.00 87 1015.7
20260902121501 27 96 3.2 6.4 0.00 0.00 0.00 87 1015.6
20260902121004 27 269 1.6 6.4 0.00 0.00 0.00 87 1015.6
20260902120503 27 274 1.6 6.4 0.00 0.00 0.00 87 1015.5
20260902120004 27 1 1.6 8.0 0.00 0.00 0.00 87 1015.6
20260902115503 27 322 3.2 8.0 0.00 0.00 0.00 87 1015.6
20260902115225 27 66 3.2 8.0 0.00 0.00 0.00 87 1015.6
20260902114557 27 320 1.6 9.7 0.00 0.00 0.00 86 1015.7
20260902114503 27 226 1.6 8.0 0.00 0.00 0.00 86 1015.5
20260902114004 27 73 0.0 6.4 0.00 0.00 0.00 86 1015.4
20260902113504 27 187 3.2 6.4 0.00 0.00 0.00 86 1015.4
20260902113228 27 329 3.2 11.3 0.00 0.00 0.00 86 1015.3
20260902113202 27 223 1.6 9.7 0.00 0.00 0.00 86 1015.6
20260902112515 27 263 3.2 11.3 0.00 0.00 0.00 86 1015.3
20260902112016 27 207 4.8 6.4 0.00 0.00 0.00 86 1015.4
20260902111657 27 288 3.2 11.3 0.00 0.00 0.00 85 1015.6
20260902111503 27 119 3.2 6.4 0.00 0.00 0.00 86 1015.4
20260902111236 27 225 4.8 9.7 0.00 0.00 0.00 85 1015.4
20260902110503 27 345 4.8 11.3 0.00 0.00 0.00 85 1015.4
20260902110243 27 278 3.2 12.9 0.00 0.00 0.00 85 1015.5
20260902110125 27 278 3.2 12.9 0.00 0.00 0.00 85 1015.5
20260902110006 27 287 4.8 11.3 0.00 0.00 0.00 85 1015.3
20260902105503 27 247 3.2 6.4 0.00 0.00 0.00 85 1015.3
20260902105003 27 252 1.6 9.7 0.00 0.00 0.00 85 1015.4
20260902104616 27 275 1.6 11.3 0.00 0.00 0.00 85 1015.4
20260902104501 27 155 3.2 9.7 0.00 0.00 0.00 85 1015.3
20260902104226 27 184 3.2 9.7 0.00 0.00 0.00 85 1015.5
20260902103721 27 6 4.8 11.3 0.00 0.00 0.00 85 1015.5
20260902103052 27 70 3.2 11.3 0.00 0.00 0.00 85 1015.6
20260902103002 27 176 3.2 11.3 0.00 0.00 0.00 85 1015.5
20260902102943 27 191 4.8 11.3 0.00 0.00 0.00 85 1015.3
20260902102002 27 67 1.6 11.3 0.00 0.00 0.00 85 1015.3
20260902101601 27 260 3.2 9.7 0.00 0.00 0.00 84 1015.5
20260902101501 27 97 3.2 11.3 0.00 0.00 0.00 85 1015.4
20260902101017 27 302 3.2 9.7 0.00 0.00 0.00 85 1015.4
20260902100516 28 152 4.8 9.7 0.00 0.00 0.00 85 1015.5
20260902100326 27 72 3.2 11.3 0.00 0.00 0.00 84 1015.7
20260902100119 27 72 3.2 11.3 0.00 0.00 0.00 84 1015.7
20260902100004 28 180 3.2 9.7 0.00 0.00 0.00 85 1015.4
20260902095517 28 278 3.2 8.0 0.00 0.00 0.00 85 1015.4
20260902095001 28 327 3.2 11.3 0.00 0.00 0.00 85 1015.5
20260902094607 27 105 3.2 11.3 0.00 0.00 0.00 84 1015.7
20260902094502 28 278 4.8 11.3 0.00 0.00 0.00 84 1015.5
20260902094002 28 37 6.4 8.0 0.00 0.00 0.00 84 1015.5
20260902093502 28 345 1.6 6.4 0.00 0.00 0.00 84 1015.6
20260902093146 27 256 3.2 11.3 0.00 0.00 0.00 84 1015.8
20260902093002 28 6 3.2 8.0 0.00 0.00 0.00 84 1015.6
20260902092502 28 177 4.8 11.3 0.00 0.00 0.00 84 1015.6
20260902092002 28 281 4.8 14.5 0.00 0.00 0.00 84 1015.5
20260902091619 28 216 6.4 20.9 0.00 0.00 0.00 84 1015.7
20260902091501 28 350 8.0 14.5 0.00 0.00 0.00 84 1015.5
20260902091231 28 100 3.2 12.9 0.00 0.00 0.00 84 1015.4
20260902090503 28 240 6.4 12.9 0.00 0.00 0.00 84 1015.4
20260902090126 28 158 3.2 12.9 0.00 0.00 0.00 83 1015.7
20260902090004 28 136 4.8 12.9 0.00 0.00 0.00 84 1015.4
20260902085504 28 248 6.4 14.5 0.00 0.00 0.00 83 1015.3
20260902085003 28 105 8.0 14.5 0.00 0.00 0.00 83 1015.4
20260902084727 28 39 4.8 17.7 0.00 0.00 0.00 83 1015.4
20260902084607 28 70 4.8 19.3 0.00 0.00 0.00 83 1015.6
20260902084003 28 206 6.4 17.7 0.00 0.00 0.00 83 1015.5
20260902083503 28 57 6.4 17.7 0.00 0.00 0.00 83 1015.5
20260902083108 28 113 6.4 17.7 0.00 0.00 0.00 82 1015.7
20260902083002 28 164 6.4 17.7 0.00 0.00 0.00 83 1015.5
20260902082502 28 276 3.2 11.3 0.00 0.00 0.00 83 1015.6
20260902082000 28 248 4.8 16.1 0.00 0.00 0.00 82 1015.6
20260902081620 28 260 3.2 17.7 0.00 0.00 0.00 82 1015.8
20260902081454 28 221 3.2 17.7 0.00 0.00 0.00 82 1015.6
20260902081212 28 161 6.4 17.7 0.00 0.00 0.00 82 1015.6
20260902080443 28 157 1.6 16.1 0.00 0.00 0.00 82 1015.7
20260902080225 28 290 6.4 14.5 0.00 0.00 0.00 82 1015.8
20260902075943 28 306 8.0 16.1 0.00 0.00 0.00 82 1015.6
20260902075704 28 322 3.2 12.9 0.00 0.00 0.00 82 1015.7
20260902074938 28 22 4.8 12.9 0.00 0.00 0.00 82 1015.7
20260902074606 28 6 1.6 12.9 0.00 0.00 0.00 81 1016.0
20260902074434 28 273 3.2 11.3 0.00 0.00 0.00 82 1015.8
20260902073931 28 238 6.4 12.9 0.00 0.00 0.00 82 1015.8
20260902073430 28 130 3.2 12.9 0.00 0.00 0.00 82 1015.8
20260902073059 28 223 6.4 12.9 0.00 0.00 0.00 81 1016.1
20260902072930 28 186 6.4 12.9 0.00 0.00 0.00 82 1015.9
20260902072655 28 150 3.2 12.9 0.00 0.00 0.00 82 1015.7
20260902071930 28 217 6.4 12.9 0.00 0.00 0.00 81 1016.0
20260902071602 28 225 4.8 12.9 0.00 0.00 0.00 81 1016.2
20260902071430 28 278 4.8 12.9 0.00 0.00 0.00 81 1016.0
20260902070929 28 300 4.8 11.3 0.00 0.00 0.00 81 1016.1
20260902070433 28 349 4.8 11.3 0.00 0.00 0.00 81 1016.2
20260902070318 28 134 4.8 12.9 0.00 0.00 0.00 81 1016.5
20260902070220 28 134 4.8 12.9 0.00 0.00 0.00 81 1016.5
20260902065932 28 264 4.8 12.9 0.00 0.00 0.00 81 1016.1
20260902065657 28 256 6.4 12.9 0.00 0.00 0.00 81 1016.2
20260902064936 28 79 6.4 14.5 0.00 0.00 0.00 82 1016.3
20260902064558 28 50 6.4 14.5 0.00 0.00 0.00 82 1016.5
20260902064436 28 69 6.4 14.5 0.00 0.00 0.00 82 1016.3
20260902064148 28 116 4.8 11.3 0.00 0.00 0.00 82 1016.4
20260902063431 28 44 4.8 11.3 0.00 0.00 0.00 82 1016.4
20260902063250 28 283 3.2 14.5 0.00 0.00 0.00 82 1016.7
20260902063156 28 12 4.8 14.5 0.00 0.00 0.00 82 1016.5
20260902062430 28 224 4.8 14.5 0.00 0.00 0.00 82 1016.5
20260902061930 28 217 4.8 12.9 0.00 0.00 0.00 82 1016.6
20260902061557 28 161 4.8 12.9 0.00 0.00 0.00 81 1016.8
20260902061430 28 251 6.4 12.9 0.00 0.00 0.00 82 1016.6
20260902060930 28 114 4.8 14.5 0.00 0.00 0.00 82 1016.6
20260902060430 28 138 8.0 14.5 0.00 0.00 0.00 81 1016.6
20260902060135 28 11 4.8 14.5 0.00 0.00 0.00 81 1016.7
20260902055931 29 218 4.8 12.9 0.00 0.00 0.00 81 1016.5
20260902055430 29 180 4.8 16.1 0.00 0.00 0.00 81 1016.4
20260902055416 29 179 6.4 16.1 0.00 0.00 0.00 81 1016.3
20260902054554 28 124 6.4 16.1 0.00 0.00 0.00 80 1016.6
20260902054430 29 346 8.0 17.7 0.00 0.00 0.00 81 1016.5
20260902054150 29 71 4.8 17.7 0.00 0.00 0.00 81 1016.6
20260902053430 29 215 3.2 11.3 0.00 0.00 0.00 80 1016.4
20260902053149 29 169 4.8 11.3 0.00 0.00 0.00 80 1016.6
20260902053119 28 256 4.8 12.9 0.00 0.00 0.00 80 1016.8
20260902052430 29 253 3.2 11.3 0.00 0.00 0.00 80 1016.5
20260902051927 29 298 3.2 11.3 0.00 0.00 0.00 80 1016.6
20260902051607 28 94 6.4 14.5 0.00 0.00 0.00 80 1016.7
20260902051423 29 271 4.8 9.7 0.00 0.00 0.00 80 1016.4
20260902050916 29 200 3.2 12.9 0.00 0.00 0.00 80 1016.5
20260902050411 29 203 4.8 12.9 0.00 0.00 0.00 80 1016.4
20260902050055 29 134 3.2 11.3 0.00 0.00 0.00 79 1016.7
20260902045909 29 321 3.2 11.3 0.00 0.00 0.00 80 1016.6
20260902045407 29 222 3.2 11.3 0.00 0.00 0.00 80 1016.6
20260902044908 29 102 3.2 11.3 0.00 0.00 0.00 79 1016.6
20260902044602 29 299 3.2 12.9 0.00 0.00 0.00 78 1016.8
20260902044408 29 231 4.8 12.9 0.00 0.00 0.00 79 1016.6
20260902044355 29 250 4.8 12.9 0.00 0.00 0.00 78 1016.7
20260902043409 29 290 6.4 9.7 0.00 0.00 0.00 78 1016.8
20260902043111 29 167 3.2 11.3 0.00 0.00 0.00 77 1016.9
20260902042908 29 0 3.2 9.7 0.00 0.00 0.00 78 1016.7
20260902042407 29 127 6.4 9.7 0.00 0.00 0.00 78 1016.7
20260902041909 29 166 3.2 12.9 0.00 0.00 0.00 78 1016.7
20260902041630 29 240 3.2 11.3 0.00 0.00 0.00 77 1016.8
20260902041557 29 240 3.2 11.3 0.00 0.00 0.00 77 1016.8
20260902041408 29 59 3.2 12.9 0.00 0.00 0.00 78 1016.7
20260902040906 30 136 4.8 12.9 0.00 0.00 0.00 78 1016.5
20260902040625 30 210 4.8 12.9 0.00 0.00 0.00 78 1016.4
20260902040133 30 330 4.8 12.9 0.00 0.00 0.00 78 1016.2
20260902040056 29 233 4.8 12.9 0.00 0.00 0.00 77 1016.6
20260902035406 30 285 6.4 14.5 0.00 0.00 0.00 78 1016.3
20260902035132 30 228 6.4 16.1 0.00 0.00 0.00 77 1016.3
20260902034553 30 153 6.4 16.1 0.00 0.00 0.00 77 1016.4
20260902034406 30 23 6.4 16.1 0.00 0.00 0.00 77 1016.1
20260902033906 30 252 4.8 12.9 0.00 0.00 0.00 77 1016.0
20260902033407 30 274 4.8 17.7 0.00 0.00 0.00 76 1016.0
20260902033112 30 219 8.0 17.7 0.00 0.00 0.00 76 1016.2
20260902032907 30 8 8.0 17.7 0.00 0.00 0.00 76 1015.9
20260902032406 30 219 4.8 12.9 0.00 0.00 0.00 76 1015.9
20260902031905 30 77 6.4 11.3 0.00 0.00 0.00 76 1015.7
20260902031558 30 68 3.2 12.9 0.00 0.00 0.00 75 1015.7
20260902031405 30 342 6.4 12.9 0.00 0.00 0.00 75 1015.5
20260902030902 30 254 4.8 16.1 0.00 0.00 0.00 75 1015.5
20260902030402 30 56 6.4 16.1 0.00 0.00 0.00 75 1015.4
20260902030056 30 67 6.4 14.5 0.00 0.00 0.00 74 1015.5
20260902025902 30 69 6.4 14.5 0.00 0.00 0.00 74 1015.2
20260902025627 30 40 4.8 14.5 0.00 0.00 0.00 74 1015.1
20260902024941 30 316 4.8 14.5 0.00 0.00 0.00 72 1015.2
20260902024902 31 89 4.8 11.3 0.00 0.00 0.00 73 1015.1
20260902024851 30 316 4.8 14.5 0.00 0.00 0.00 72 1015.2
20260902024402 31 152 6.4 11.3 0.00 0.00 0.00 72 1014.9
20260902023902 31 8 4.8 16.1 0.00 0.00 0.00 72 1014.8
20260902023403 31 304 8.0 11.3 0.00 0.00 0.00 71 1014.8
20260902023131 -17 0.0 0.0 0.00 0.00 0.00
20260902023101 31 190 6.4 14.5 0.00 0.00 0.00 70 1015.0
20260902022502 31 205 6.4 0.0 0.00 0.00 0.00 67 1014.3
20260902022001 31 205 6.4 9.7 0.00 0.00 0.00 67 1014.3
20260902021501 31 205 6.4 11.3 0.00 0.00 0.00 67 1014.3
20260902021001 31 174 4.8 12.9 0.00 0.00 0.00 67 1014.3
20260902020501 31 70 6.4 12.9 0.00 0.00 0.00 66 1014.1
20260902020144 31 34 3.2 17.7 0.00 0.00 0.00 64 1014.3
20260902020001 32 115 6.4 17.7 0.00 0.00 0.00 64 1014.1
20260902015500 32 27 8.0 17.7 0.00 0.00 0.00 64 1014.1
20260902015003 32 164 8.0 17.7 0.00 0.00 0.00 63 1014.0
20260902014724 32 352 6.4 14.5 0.00 0.00 0.00 62 1014.0
20260902014602 32 123 6.4 16.1 0.00 0.00 0.00 62 1014.2
20260902014002 32 52 6.4 14.5 0.00 0.00 0.00 61 1013.9
20260902013502 32 155 6.4 14.5 0.00 0.00 0.00 60 1013.8
20260902013106 32 10 3.2 16.1 0.00 0.00 0.00 58 1013.7
20260902013000 32 273 3.2 14.5 0.00 0.00 0.00 59 1013.6
20260902012736 33 294 6.4 14.5 0.00 0.00 0.00 58 1013.5
20260902012001 33 330 6.4 17.7 0.00 0.00 0.00 57 1013.5
20260902011555 33 60 4.8 16.1 0.00 0.00 0.00 56 1013.6
20260902011501 33 222 6.4 17.7 0.00 0.00 0.00 56 1013.4
20260902011001 33 177 9.7 16.1 0.00 0.00 0.00 55 1013.4
20260902010502 33 141 6.4 12.9 0.00 0.00 0.00 53 1013.1
20260902010454 33 344 6.4 14.5 0.00 0.00 0.00 52 1013.2
20260902010002 33 25 6.4 14.5 0.00 0.00 0.00 53 1013.1
20260902005501 33 214 8.0 17.7 0.00 0.00 0.00 52 1013.0
20260902005002 34 221 6.4 17.7 0.00 0.00 0.00 52 1013.0
20260902004603 33 180 6.4 17.7 0.00 0.00 0.00 51 1013.2
20260902004502 34 319 8.0 17.7 0.00 0.00 0.00 51 1013.0
20260902004001 34 20 8.0 17.7 0.00 0.00 0.00 51 1012.9
20260902003502 35 58 6.4 12.9 0.00 0.00 0.00 50 1012.9
20260902003104 35 240 4.8 14.5 0.00 0.00 0.00 49 1013.1
20260902003002 35 139 6.4 12.9 0.00 0.00 0.00 50 1012.8
20260902002500 35 288 6.4 14.5 0.00 0.00 0.00 49 1012.7
20260902002002 35 292 6.4 16.1 0.00 0.00 0.00 49 1012.6
20260902001556 35 210 4.8 16.1 0.00 0.00 0.00 48 1012.8
20260902001501 35 325 6.4 16.1 0.00 0.00 0.00 48 1012.5
20260902001001 36 94 8.0 14.5 0.00 0.00 0.00 46 1012.6
20260902000501 36 56 8.0 14.5 0.00 0.00 0.00 46 1012.5
20260902000055 36 88 6.4 16.1 0.00 0.00 0.00 44 1012.7
20260902000002 36 196 8.0 12.9 0.00 0.00 0.00 45 1012.5
20260901235500 36 200 4.8 12.9 0.00 0.00 0.00 43 1012.4
20260901235002 37 219 4.8 12.9 0.00 0.00 0.00 42 1012.4
20260901234635 36 198 4.8 12.9 0.00 0.00 0.00 42 1012.5
20260901234447 37 103 6.4 12.9 0.00 0.00 0.00 42 1012.2
20260901233941 37 242 6.4 12.9 0.00 0.00 0.00 41 1012.3
20260901233440 37 167 6.4 14.5 0.00 0.00 0.00 41 1012.2
20260901233103 37 82 9.7 17.7 0.00 0.00 0.00 40 1012.4
20260901232935 37 184 9.7 14.5 0.00 0.00 0.00 40 1012.2
20260901232435 37 347 4.8 11.3 0.00 0.00 0.00 39 1012.4
20260901231929 37 262 4.8 14.5 0.00 0.00 0.00 40 1012.3
20260901231607 37 3 8.0 12.9 0.00 0.00 0.00 39 1012.4
20260901231429 38 263 8.0 14.5 0.00 0.00 0.00 39 1012.2
20260901230929 38 67 6.4 14.5 0.00 0.00 0.00 38 1012.0
20260901230429 38 216 6.4 17.7 0.00 0.00 0.00 37 1012.1
20260901230159 38 336 6.4 17.7 0.00 0.00 0.00 37 1012.0
20260901230112 38 229 4.8 17.7 0.00 0.00 0.00 37 1012.3
20260901225929 38 238 6.4 17.7 0.00 0.00 0.00 37 1012.0
20260901224928 38 77 4.8 12.9 0.00 0.00 0.00 37 1012.0
20260901224603 38 112 4.8 12.9 0.00 0.00 0.00 36 1012.1
20260901224430 38 358 6.4 12.9 0.00 0.00 0.00 37 1012.1
20260901223930 38 176 3.2 11.3 0.00 0.00 0.00 37 1012.0
20260901223430 38 98 8.0 11.3 0.00 0.00 0.00 36 1012.1
20260901223126 38 229 6.4 14.5 0.00 0.00 0.00 35 1012.3
20260901222929 39 257 1.6 11.3 0.00 0.00 0.00 36 1012.0
20260901222429 38 289 4.8 11.3 0.00 0.00 0.00 37 1012.0
20260901221928 38 285 4.8 11.3 0.00 0.00 0.00 37 1012.0
20260901221618 38 226 6.4 14.5 0.00 0.00 0.00 36 1012.4
20260901221431 38 288 9.7 11.3 0.00 0.00 0.00 37 1012.0
20260901221157 39 276 3.2 17.7 0.00 0.00 0.00 36 1012.0
20260901220718 39 297 6.4 17.7 0.00 0.00 0.00 37 1012.1
20260901220057 39 79 3.2 12.9 0.00 0.00 0.00 37 1012.3
20260901215931 40 304 4.8 9.7 0.00 0.00 0.00 38 1012.1
20260901215428 39 106 3.2 9.7 0.00 0.00 0.00 39 1012.1
20260901214928 39 307 4.8 16.1 0.00 0.00 0.00 38 1012.2
20260901214600 39 286 6.4 14.5 0.00 0.00 0.00 37 1012.4
20260901214429 39 233 8.0 16.1 0.00 0.00 0.00 37 1012.2
20260901213929 40 272 3.2 12.9 0.00 0.00 0.00 37 1012.3
20260901213429 39 245 4.8 16.1 0.00 0.00 0.00 38 1012.3
20260901213126 39 225 4.8 14.5 0.00 0.00 0.00 39 1012.5
20260901212929 39 227 6.4 16.1 0.00 0.00 0.00 38 1012.4
20260901212429 39 262 4.8 17.7 0.00 0.00 0.00 37 1012.4
20260901211929 40 253 8.0 17.7 0.00 0.00 0.00 38 1012.4
20260901211602 39 229 3.2 20.9 0.00 0.00 0.00 38 1012.6
20260901211431 39 290 4.8 17.7 0.00 0.00 0.00 40 1012.4
20260901210929 39 37 8.0 17.7 0.00 0.00 0.00 41 1012.4
20260901210429 39 64 4.8 19.3 0.00 0.00 0.00 41 1012.6
20260901210101 39 123 6.4 20.9 0.00 0.00 0.00 40 1012.8
20260901205929 39 181 6.4 19.3 0.00 0.00 0.00 40 1012.6
20260901205428 39 209 4.8 12.9 0.00 0.00 0.00 41 1012.6
20260901204928 39 133 4.8 11.3 0.00 0.00 0.00 41 1012.8
20260901204559 38 250 3.2 14.5 0.00 0.00 0.00 41 1013.1
20260901204431 39 207 4.8 11.3 0.00 0.00 0.00 42 1012.9
20260901203930 38 124 3.2 14.5 0.00 0.00 0.00 43 1012.9
20260901203431 38 70 4.8 14.5 0.00 0.00 0.00 43 1013.1
20260901203107 38 82 4.8 12.9 0.00 0.00 0.00 41 1013.3
20260901202928 39 53 3.2 12.9 0.00 0.00 0.00 41 1013.0
20260901202429 38 36 6.4 16.1 0.00 0.00 0.00 41 1013.1
20260901202151 38 188 6.4 16.1 0.00 0.00 0.00 43 1013.2
20260901201654 38 335 3.2 14.5 0.00 0.00 0.00 43 1013.2
20260901201604 38 295 1.6 12.9 0.00 0.00 0.00 43 1013.5
20260901200929 39 311 4.8 11.3 0.00 0.00 0.00 41 1013.4
20260901200429 39 296 4.8 11.3 0.00 0.00 0.00 40 1013.5
20260901195929 39 190 3.2 9.7 0.00 0.00 0.00 42 1013.5
20260901195428 38 140 1.6 11.3 0.00 0.00 0.00 42 1013.7
20260901194929 39 264 4.8 11.3 0.00 0.00 0.00 41 1013.8
20260901194559 38 40 6.4 14.5 0.00 0.00 0.00 41 1013.9
20260901194428 39 169 6.4 16.1 0.00 0.00 0.00 40 1013.8
20260901193923 38 97 4.8 16.1 0.00 0.00 0.00 40 1013.9
20260901193418 38 181 3.2 12.9 0.00 0.00 0.00 39 1014.0
20260901193133 39 34 6.4 11.3 0.00 0.00 0.00 41 1014.0
20260901193108 38 56 4.8 11.3 0.00 0.00 0.00 39 1014.2
20260901192411 38 220 4.8 12.9 0.00 0.00 0.00 42 1014.0
20260901191905 38 233 4.8 16.1 0.00 0.00 0.00 39 1014.1
20260901191553 38 197 4.8 16.1 0.00 0.00 0.00 42 1014.4
20260901191402 38 311 6.4 16.1 0.00 0.00 0.00 41 1014.2
20260901190902 38 14 6.4 17.7 0.00 0.00 0.00 42 1014.3
20260901190401 38 41 6.4 17.7 0.00 0.00 0.00 40 1014.5
20260901190052 38 136 1.6 14.5 0.00 0.00 0.00 43 1014.7
20260901185901 38 222 3.2 14.5 0.00 0.00 0.00 43 1014.5
20260901185623 38 226 6.4 16.1 0.00 0.00 0.00 44 1014.6